Regional Weather Roundup
Issued by NWS Memphis, TN

Home | Current Version | Previous Version | Text Only | Print | Product List | Glossary On
Versions: 1 2 3 4 5 6 7 8 9 10 11 12 13 14 15 16 17 18 19 20 21 22 23 24 25 26 27 28 29 30 31 32 33 34 35 36 37 38 39 40 41 42 43 44 45 46 47 48 49 50
000
ASUS44 KMEG 210510
RWRMEG
MEMPHIS CWA HOURLY WEATHER ROUNDUP
NATIONAL WEATHER SERVICE MEMPHIS TN
1200 AM CDT FRI JUL 21 2017

...WEST TENNESSEE...

CITY           SKY/WX    TMP DP  RH WIND       PRES   REMARKS
MEMPHIS INTL   CLEAR     82  76  81 CALM      30.02F
NWS MEMPHIS      N/A     79 N/A N/A MISG        N/A
JACKSON        PTCLDY    76  74  93 CALM      30.02F
COVINGTON      CLEAR     77  75  94 CALM      30.01F
SOMERVILLE       N/A     77  77 100 CALM      30.02S
BOLIVAR        CLEAR     75  73  94 CALM      30.03S
SELMER         CLEAR     77  75  94 CALM      30.04S
SAVANNAH       CLEAR     77  75  94 CALM      30.02F
UNION CITY     CLEAR     77  75  94 CALM      30.01S
PARIS          CLEAR     75  73  94 CALM      30.02S
HUNTINGDON     CLEAR     77  75  94 CALM      30.01F


...EASTERN ARKANSAS...

CITY           SKY/WX    TMP DP  RH WIND       PRES   REMARKS
JONESBORO        N/A     86  77  74 SW8       30.00S HX  97
WEST MEMPHIS   CLEAR     79  78  97 S3        30.01S
BATESVILLE     CLEAR     84  73  70 S3        30.03S HX  91
WALNUT RIDGE   CLEAR     82  75  78 SW8       30.00S
BLYTHEVILLE    CLEAR     82  78  88 SW5       30.01S HX  91
SEARCY         CLEAR     80  79  96 CALM      30.04S
STUTTGART      CLEAR     84  66  54 S6        30.04S
PINE BLUFF     CLEAR     82  78  88 CALM      30.03S HX  91
MONTICELLO     CLEAR     80  77  90 CALM      30.03F


...NORTH MISSISSIPPI...

CITY           SKY/WX    TMP DP  RH WIND       PRES   REMARKS
TUPELO         PTCLDY    82  76  81 CALM      30.03S
OXFORD         PTCLDY    75  73  94 CALM      30.06S
BATESVILLE     CLEAR     76  74  93 CALM      30.04S FOG
TUNICA           N/A     77  73  88 CALM      30.03S
CLARKSDALE       N/A     81  81 100 CALM      30.03S HX  91
CORINTH        PTCLDY    79  77  94 CALM      30.04S
GREENWOOD      CLEAR     78  76  93 CALM      30.03S
COLUMBUS       MOCLDY    78  78 100 CALM      30.02S
STARKVILLE     PTCLDY    75  73  94 CALM      30.05S FOG
GOLDEN TRIANGL PTCLDY    81  72  74 CALM        N/A


...SOUTHEAST MISSOURI...

CITY           SKY/WX    TMP DP  RH WIND       PRES   REMARKS
KENNETT        CLEAR     82  79  89 MISG        N/A  HX  93
MALDEN         CLEAR     84  77  79 S5        30.01S HX  94
WEST PLAINS    CLEAR     82  73  74 SW6       30.06S
POPLAR BLUFF   CLEAR     82  78  88 SW5       30.00R HX  91
CAPE GIRARDEAU CLEAR     79  74  84 CALM      29.99S


...NORTHWEST ALABAMA...

CITY           SKY/WX    TMP DP  RH WIND       PRES   REMARKS
MUSCLE SHOALS  PTCLDY    78  73  84 CALM      30.06R


...MIDDLE TENNESSEE...

CITY           SKY/WX    TMP DP  RH WIND       PRES   REMARKS
NASHVILLE      PTCLDY    78  74  87 S5        30.05S
CLARKSVILLE    CLEAR     76  73  91 CALM      30.03S FOG
COLUMBIA       PTCLDY    75  75 100 CALM      30.03S


...WESTERN KENTUCKY...

CITY           SKY/WX    TMP DP  RH WIND       PRES   REMARKS
PADUCAH        PTCLDY    82  74  76 SW5       30.00S
FORT CAMPBELL  CLEAR     81  74  81 CALM      30.03S


...CENTRAL ARKANSAS...

CITY           SKY/WX    TMP DP  RH WIND       PRES   REMARKS
LITTLE ROCK    CLEAR     83  77  82 SW5       30.02F HX  92


SKY/WX REPORTED AS FAIR MEANS FEW OR NO CLOUDS BELOW
12 THOUSAND FEET.





USA.gov is the U.S. government's official web portal to all federal, state and local government web resources and services.